Weather History for Winona, MN

Change the Weather History Date:

Saturday, January 18, 2014

  Actual Average Record
Temperature  
Mean Temperature 13 °F -  
Max Temperature 23 °F 22 °F 46 °F (2013)
Min Temperature 3 °F 5 °F -14 °F (1993)
Degree Days  
Heating Degree Days 52    
Moisture  
Dew Point 8 °F    
Average Humidity 81    
Maximum Humidity 93    
Minimum Humidity 68    
Precipitation  
Precipitation 0.00 in - - ()
Sea Level Pressure  
Sea Level Pressure 29.81 in    
Wind  
Wind Speed 5 mph (ESE)    
Max Wind Speed 13 mph    
Max Gust Speed 17 mph    
Visibility 8 miles    
Events Snow    
Averages and records for this station are not official NWS values.
T = Trace of Precipitation, MM = Missing Value Source: NWS Daily Summary

Daily Weather History Graph

Daily Weather History Graph

Search for Another Location

Airport:

Trip Planner

Search our weather history database for the weather conditions in past years. The results will help you decide how hot, cold, wet, or windy it might be!

Date:

Astronomy

Jan. 18, 2014 Rise Set
Actual Time 7:36 AM CST 4:58 PM CST
Civil Twilight 7:04 AM CST 5:30 PM CST
Nautical Twilight 6:29 AM CST 6:05 PM CST
Astronomical Twilight 5:54 AM CST 6:40 PM CST
Moon 7:47 PM CST (1/18) 8:30 AM CST (1/18)
Length of Visible Light 10h 25m
Length of Day
9h 21m
Waning Gibbous, 94% of the Moon is Illuminated
Jan 18
Waning Gibbous
Jan 23
Last Quarter
Jan 30
New
Feb 6
First Quarter
Feb 14
Full

Hourly Weather History & Observations

Time (CST) Temp. Windchill Dew Point Humidity Pressure Visibility Wind Dir Wind Speed Gust Speed Precip Events Conditions
12:17 AM 3.2 °F - -2.2 °F 78% 29.89 in 10.0 mi Calm Calm - N/A   Clear
12:38 AM 3.2 °F -6.2 °F -0.4 °F 85% 29.87 in 10.0 mi SE 4.6 mph - N/A   Clear
12:57 AM 3.2 °F -7.8 °F -0.4 °F 85% 29.86 in 10.0 mi SSE 5.8 mph - N/A   Clear
1:17 AM 5.0 °F -5.6 °F -0.4 °F 78% 29.86 in 10.0 mi SE 5.8 mph - N/A   Clear
1:38 AM 5.0 °F -5.6 °F -0.4 °F 78% 29.85 in 10.0 mi SE 5.8 mph - N/A   Scattered Clouds
1:57 AM 5.0 °F -9.1 °F -0.4 °F 78% 29.84 in 10.0 mi SE 9.2 mph - N/A   Scattered Clouds
2:18 AM 5.0 °F - 1.4 °F 85% 29.83 in 10.0 mi Calm Calm - N/A   Scattered Clouds
2:37 AM 8.6 °F 0.1 °F 3.2 °F 79% 29.81 in 10.0 mi SSE 4.6 mph - N/A   Scattered Clouds
2:57 AM 8.6 °F -2.6 °F 3.2 °F 79% 29.80 in 10.0 mi SE 6.9 mph - N/A   Mostly Cloudy
3:18 AM 8.6 °F -3.7 °F 3.2 °F 79% 29.78 in 10.0 mi SE 8.1 mph - N/A   Overcast
3:37 AM 8.6 °F -2.6 °F 3.2 °F 79% 29.77 in 10.0 mi SSE 6.9 mph - N/A   Overcast
3:57 AM 8.6 °F -1.3 °F 3.2 °F 79% 29.76 in 10.0 mi SSE 5.8 mph - N/A   Overcast
4:18 AM 8.6 °F -2.6 °F 3.2 °F 79% 29.75 in 10.0 mi SSE 6.9 mph - N/A   Overcast
4:37 AM 10.4 °F -3.3 °F 5.0 °F 79% 29.73 in 10.0 mi SE 10.4 mph - N/A   Overcast
4:57 AM 10.4 °F -1.5 °F 5.0 °F 79% 29.72 in 2.5 mi SE 8.1 mph - N/A Snow Light Snow
5:18 AM 10.4 °F -4.1 °F 5.0 °F 79% 29.70 in 1.8 mi SE 11.5 mph - N/A Snow Light Snow
5:37 AM 10.4 °F -3.3 °F 5.0 °F 79% 29.69 in 1.8 mi SE 10.4 mph - N/A Snow Light Snow
5:57 AM 10.4 °F -4.1 °F 6.8 °F 85% 29.67 in 1.5 mi SE 11.5 mph - N/A Snow Light Snow
6:18 AM 10.4 °F -4.1 °F 6.8 °F 85% 29.66 in 2.0 mi SE 11.5 mph - N/A Snow Light Snow
6:37 AM 10.4 °F -4.8 °F 6.8 °F 85% 29.66 in 2.5 mi SE 12.7 mph 17.3 mph N/A Snow Light Snow
6:58 AM 10.4 °F -4.1 °F 6.8 °F 85% 29.66 in 1.5 mi SE 11.5 mph - N/A Snow Light Snow
7:17 AM 10.4 °F -3.3 °F 6.8 °F 85% 29.67 in 1.2 mi SE 10.4 mph - N/A Snow Snow
7:37 AM 10.4 °F -1.5 °F 6.8 °F 85% 29.67 in 1.2 mi SE 8.1 mph - N/A Snow Light Snow
7:58 AM 10.4 °F -3.3 °F 6.8 °F 85% 29.67 in 1.0 mi ESE 10.4 mph - N/A Snow Snow
8:17 AM 10.4 °F -3.3 °F 8.6 °F 92% 29.67 in 0.5 mi SE 10.4 mph - N/A Snow Snow
8:37 AM 12.2 °F -1.0 °F 8.6 °F 85% 29.68 in 0.8 mi SE 10.4 mph - N/A Snow Light Snow
8:58 AM 12.2 °F -0.2 °F 8.6 °F 85% 29.69 in 1.0 mi SE 9.2 mph - N/A Snow Light Snow
9:17 AM 12.2 °F 0.7 °F 8.6 °F 85% 29.70 in 1.2 mi SE 8.1 mph - N/A Snow Light Snow
9:37 AM 14.0 °F 3.9 °F 10.4 °F 86% 29.72 in 1.5 mi SE 6.9 mph - N/A Snow Light Snow
9:58 AM 14.0 °F 2.9 °F 10.4 °F 86% 29.72 in 2.5 mi ESE 8.1 mph - N/A Snow Light Snow
10:17 AM 15.8 °F 5.1 °F 10.4 °F 79% 29.74 in 2.0 mi ESE 8.1 mph - N/A Snow Light Snow
10:37 AM 15.8 °F 6.1 °F 10.4 °F 79% 29.74 in 3.0 mi SE 6.9 mph - N/A Snow Light Snow
10:58 AM 15.8 °F 5.1 °F 10.4 °F 79% 29.74 in 5.0 mi SE 8.1 mph - N/A Snow Light Snow
11:17 AM 17.6 °F 12.3 °F 12.2 °F 79% 29.76 in 5.0 mi ESE 3.5 mph - N/A Snow Light Snow
11:37 AM 17.6 °F 9.3 °F 12.2 °F 79% 29.77 in 5.0 mi ESE 5.8 mph - N/A   Haze
11:58 AM 17.6 °F 8.2 °F 10.4 °F 73% 29.78 in 10.0 mi East 6.9 mph - N/A   Overcast
12:17 PM 17.6 °F 9.3 °F 12.2 °F 79% 29.80 in 10.0 mi NNE 5.8 mph - N/A   Overcast
12:38 PM 17.6 °F 10.7 °F 10.4 °F 73% 29.80 in 10.0 mi NE 4.6 mph - N/A   Overcast
12:58 PM 17.6 °F 9.3 °F 12.2 °F 79% 29.81 in 10.0 mi NE 5.8 mph - N/A   Overcast
1:17 PM 19.4 °F 11.5 °F 12.2 °F 74% 29.80 in 10.0 mi ENE 5.8 mph - N/A Snow Light Snow
1:38 PM 19.4 °F 11.5 °F 12.2 °F 74% 29.82 in 10.0 mi NNE 5.8 mph - N/A Snow Light Snow
1:58 PM 21.2 °F 14.9 °F 12.2 °F 68% 29.84 in 10.0 mi NNE 4.6 mph - N/A   Scattered Clouds
2:17 PM 21.2 °F 14.9 °F 12.2 °F 68% 29.84 in 10.0 mi North 4.6 mph - N/A   Scattered Clouds
2:38 PM 21.2 °F 13.6 °F 12.2 °F 68% 29.86 in 10.0 mi NE 5.8 mph - N/A   Overcast
2:58 PM 21.2 °F 13.6 °F 12.2 °F 68% 29.87 in 10.0 mi NNE 5.8 mph - N/A   Overcast
3:17 PM 21.2 °F 16.4 °F 12.2 °F 68% 29.88 in 10.0 mi NNE 3.5 mph - N/A   Mostly Cloudy
3:38 PM 21.2 °F - 12.2 °F 68% 29.89 in 10.0 mi Calm Calm - N/A   Clear
3:58 PM 23.0 °F - 14.0 °F 68% 29.88 in 10.0 mi Calm Calm - N/A   Scattered Clouds
4:17 PM 21.2 °F - 12.2 °F 68% 29.88 in 10.0 mi Calm Calm - N/A   Scattered Clouds
4:38 PM 19.4 °F - 12.2 °F 74% 29.89 in 10.0 mi Calm Calm - N/A   Clear
4:58 PM 19.4 °F - 12.2 °F 74% 29.90 in 10.0 mi Calm Calm - N/A   Clear
5:17 PM 14.0 °F 5.1 °F 8.6 °F 79% 29.93 in 10.0 mi NW 5.8 mph - N/A   Clear
5:38 PM 17.6 °F 12.3 °F 12.2 °F 79% 29.93 in 10.0 mi WNW 3.5 mph - N/A   Clear
5:58 PM 12.2 °F - 8.6 °F 85% 29.93 in 10.0 mi Calm Calm - N/A   Clear
6:17 PM 14.0 °F 8.2 °F 12.2 °F 93% 29.95 in 10.0 mi NW 3.5 mph - N/A   Clear
6:38 PM 12.2 °F 2.9 °F 8.6 °F 85% 29.94 in 10.0 mi NW 5.8 mph - N/A   Clear
6:57 PM 12.2 °F 4.3 °F 8.6 °F 85% 29.94 in 10.0 mi NW 4.6 mph - N/A   Clear
7:17 PM 14.0 °F - 10.4 °F 86% 29.94 in 10.0 mi Calm Calm - N/A   Clear
7:37 PM 14.0 °F - 12.2 °F 93% 29.94 in 10.0 mi Calm Calm - N/A   Clear
7:57 PM 14.0 °F - 12.2 °F 93% 29.93 in 10.0 mi Calm Calm - N/A   Clear
8:18 PM 12.2 °F - 8.6 °F 85% 29.92 in 10.0 mi Calm Calm - N/A   Clear
8:37 PM 12.2 °F - 10.4 °F 92% 29.92 in 10.0 mi Calm Calm - N/A   Clear
8:57 PM 10.4 °F - 8.6 °F 92% 29.91 in 10.0 mi Calm Calm - N/A   Clear
9:18 PM 10.4 °F - 8.6 °F 92% 29.91 in 10.0 mi Calm Calm - N/A   Clear
9:37 PM 12.2 °F - 10.4 °F 92% 29.89 in 10.0 mi Calm Calm - N/A   Clear
9:57 PM 14.0 °F - 10.4 °F 86% 29.87 in 10.0 mi Calm Calm - N/A   Clear
10:18 PM 14.0 °F - 10.4 °F 86% 29.86 in 10.0 mi Calm Calm - N/A   Clear
10:37 PM 12.2 °F - 8.6 °F 85% 29.86 in 10.0 mi Calm Calm - N/A   Clear
10:57 PM 15.8 °F 10.2 °F 12.2 °F 86% 29.85 in 10.0 mi NW 3.5 mph - N/A   Clear
11:18 PM 17.6 °F - 12.2 °F 79% 29.84 in 10.0 mi Calm Calm - N/A   Clear
11:37 PM 17.6 °F 12.3 °F 12.2 °F 79% 29.81 in 10.0 mi WSW 3.5 mph - N/A   Scattered Clouds
11:57 PM 19.4 °F - 14.0 °F 80% 29.77 in 10.0 mi Calm Calm - N/A   Clear